013  
ASUS46 KSGX 172111  
RWRSGX  
 
SAN DIEGO HOURLY WEATHER ROUNDUP  
NATIONAL WEATHER SERVICE SAN DIEGO CA  
200 PM PDT TUE JUL 17 2018  
 
NOTE: "FAIR" INDICATES FEW OR NO CLOUDS BELOW 12,000 FEET WITH NO  
SIGNIFICANT WEATHER AND/OR S TO VISIBILITY
.  
 
CAZ042-043-060-061-PZZ750-775-172200-  
 
GREATER SAN DIEGO AREA  
 
CITY SKY/WX TMP DP RH WIND PRES REMARKS
 
SAN DIEGO AP PTSUNNY 77 65 66 W12 29.98S  
NATIONAL CITY N/A 76 68 75 SW10 29.97S  
CHULA VISTA N/A 76 68 77 W6 29.88S  
IMPERIAL BEACH PTSUNNY 75 64 68 W15 29.97F  
BROWN FIELD MOSUNNY 77 65 66 W10 29.96S  
MIRAMAR MCAS MOSUNNY 84 65 52 W12 29.96F  
MONTGOMERY FLD MOSUNNY 79 64 60 NW8 29.96F  
GILLESPIE FLD SUNNY 86 66 51 W13 29.94S  
 

 
 
NORTH SAN DIEGO COUNTY  
 
CITY SKY/WX TMP DP RH WIND PRES REMARKS
 
CAMP PENDLETON PTSUNNY 78 67 68 W12 29.94F  
OCEANSIDE AP CLOUDY 76 65 68 W10 29.95F  
OCEANSIDE HBR N/A 71 68 90 W5 29.98F  
VISTA N/A 77 68 73 SW6 29.92F  
CARLSBAD CLOUDY 71 66 84 VRB7 29.95F  
DEL MAR N/A 79 69 70 W3 29.97F  
LA JOLLA SCRIP N/A 69 67 92 W2 29.96F  
ESCONDIDO N/A 87 69 54 W9 29.93F  
SAN MARCOS N/A 81 69 66 NW8 29.98F  
POWAY N/A 86 68 54 W2 29.91F  
 

 
 
EAST SAN DIEGO COUNTY  
 
CITY SKY/WX TMP DP RH WIND PRES REMARKS
 
RAMONA SUNNY 93 64 38 NW10 29.97F  
LA MESA N/A 81 68 63 W8 29.89S  
JAMUL N/A 86 68 54 CALM 29.93S  
CAMPO N/A 94 60 32 SW13 29.97F  
 

 
 
ORANGE COUNTY AND THE LOS ANGELES BASIN  
 
CITY SKY/WX TMP DP RH WIND PRES REMARKS
 
JOHN WAYNE AP MOSUNNY 78 65 63 SW8 29.95F  
LAKE FOREST FR N/A 85 65 50 W3 29.82F  
HUNTINGTON BCH N/A 76 69 78 NW7 29.97F  
LOS ALAMITOS MOSUNNY 79 66 63 S9 29.95F  
FULLERTON MOSUNNY 84 64 50 SW9 29.94F  
LONG BEACH SUNNY 80 66 62 S8 29.95F  
L.A. AP PTSUNNY 75 65 70 W14 29.97F  
L.A. DOWNTOWN SUNNY 80 66 62 MISG 29.95F  
 

 
 
THE INLAND EMPIRE  
 
CITY SKY/WX TMP DP RH WIND PRES REMARKS
 
CORONA SUNNY 90 68 48 W16 29.93F  
CHINO MOSUNNY 95 63 34 SW12 29.95F HX 96  
ONTARIO MOSUNNY 91 63 39 SW6 29.95F  
SAN BERNARDINO PTSUNNY 95 57 28 W10 29.95F HAZE  
RIVERSIDE AP MOSUNNY 95 62 33 W8 29.94F HX 96  
MORENO VALLEY N/A 96 66 37 S5 28.10F HX 99  
MARCH ARB MOSUNNY 94 60 31 NW12 29.96F  
HORSETHIEF CYN N/A 91 58 32 NE3 29.91F  
PERRIS N/A 94 64 36 W3 N/A HX 95  
HEMET EAST N/A 93 58 30 SW6 29.85F  
FRENCH VALLEY FAIR 91 61 35 S7 29.96F  
TEMECULA N/A 93 64 38 W6 30.00F  
 

 
 
SAN BERNARDINO AND RIVERSIDE COUNTY MOUNTAINS  
 
CITY SKY/WX TMP DP RH WIND PRES REMARKS
 
BIG BEAR AP PTSUNNY 81 46 30 N5G16 30.33F  
ANGELUS OAKS N/A 79 60 51 CALM 29.77F  
 

 
 
SOUTHERN DESERT INCLUDING THE COACHELLA VALLEY  
 
CITY SKY/WX TMP DP RH WIND PRES REMARKS
 
PALM SPRINGS PTSUNNY 101 63 28 VRB3 29.89F HX 103  
THOUSAND PALMS N/A 100 68 34 E6 29.84F HX 106  
PALM DESERT N/A 103 70 34 CALM N/A HX 111  
THERMAL MOSUNNY 105 68 30 MISG 29.82F HX 112  
BLYTHE SUNNY 104 69 32 S20 29.86F HX 111  
IMPERIAL AP MOSUNNY 103 66 30 SE10G18 29.83F HX 107  
EL CENTRO NAS MOSUNNY 103 66 30 E6 29.85F HX 107  
YUMA AZ PTSUNNY 97 69 40 S8 29.88F HX 103  
MEXICALI MOSUNNY 97 63 32 SE9 29.87F HX 98  
 

 
 
UPPER DESERT  
 
CITY SKY/WX TMP DP RH WIND PRES REMARKS
 
VICTORVILLE AP SUNNY N/A N/A N/A N6 30.00F  
HESPERIA N/A 101 60 25 SW10 29.81F HX 102  
APPLE VALLEY N/A 104 54 19 NW2 29.83F HX 102  
PALMDALE SUNNY 105 54 18 W18 29.97F HX 103  
LANCASTER SUNNY 105 50 15 W16G22 29.95F HX 102  
EDWARDS AFB MOSUNNY 106 40 11 SW10 29.92F HX 100  
DAGGETT SUNNY 108 49 14 VRB5 29.91F HX 104  
29 PALMS N PTSUNNY 102 52 18 SE7 30.01F HX 99  
NEEDLES MOSUNNY 109 58 18 S9 29.87F HX 109  
 

 
 
REGIONAL REPORTS  
 
CITY SKY/WX TMP DP RH WIND PRES REMARKS
 
SANTA BARBARA SUNNY 73 61 65 W12 29.97F  
SANDBERG SUNNY 92 45 19 N22 30.18F  
LAS VEGAS NV MOSUNNY 107 57 19 VRB7 29.92F HX 107  
PHOENIX AZ MOSUNNY 101 63 28 SE7 29.89F HX 103  
TIJUANA PTSUNNY 77 61 57 W12 29.99S  
ENSENADA NW N/A 70 32 24 W7 29.92S  
 

 
 
OFFSHORE ISLANDS  
 
CITY SKY/WX TMP DP RH WIND PRES REMARKS
 
CATALINA ARPT SUNNY 71 62 73 SW7 30.01F  
SAN CLEMENTE I PTSUNNY 68 60 75 W14 30.01S  
SAN NICOLAS IS FAIR 70 60 70 NW15 30.00F  
 

 
 
MARINE AND OFFSHORE BUOY REPORTS  
 
STATION/POSITION SKY/WX TEMP WIND PRES VSBY SWELL
 
AIR SEA DIR/SP/G HT/PER/DIR  
(F) (DEG/KT/KT) (MB) (MI) (FT/S/D)  
TANNER BANKS 62 65 1016.1F  
S CLEMENTE BASIN 65 69 280/ 12/ 14 1015.5F 2/290/ 6  
SAN NICOLAS IS. 60 N/A 2/190/13  
SO. S. ROSA ISLA 60 59 290/ 14/ 16 1016.1F 2/190/13  
W. S. BARBARA CH 300/ 16/ 17 1015.4F 2/290/ 8  
M. S. BARBARA CH 64 260/ 10/ 12 1015.6F 2/240/ 5  
S. MONICA BASIN 68 300/ 4/ 8 1014.9F  
S PEDRO CHANNEL 71 N/A  
CMP PENDLETON NS 75 N/A 2/210/13  
OCEANSIDE OFFSHR 75 N/A 2/200/14  
TORREY PINES OTR 72 N/A 2/210/13  
SAN DIEGO BAY 79 1014.3F  
POINT LOMA SOUTH 69 N/A 2/180/13  
 

 
 
 
 
CLICK HERE TO GO TO PREVIOUS BULLETINS.

The Nexlab CA Page Main Text Page